GW2349 Weather Reports


Display with metric or nautical units.
time (UTC)temp
F
wind
direction
speed
MPH
gust
MPH
rain 1hr
in
rain 24hr
in
rain mn
in
humidity
%
barometer
mb
20260504043050 35 91 0.0 4.0 0.00 0.37 0.08 89 997.1
20260504042543 35 91 1.0 4.0 0.00 0.37 0.08 89 997.2
20260504042042 35 0 0.0 2.0 0.00 0.37 0.08 89 997.2
20260504041550 35 0 0.0 4.0 0.00 0.37 0.08 89 997.2
20260504041042 35 80 0.0 6.0 0.00 0.37 0.08 89 997.2
20260504040542 35 0 0.0 6.0 0.00 0.37 0.08 89 997.3
20260504040050 34 102 2.0 7.0 0.00 0.37 0.08 89 997.3
20260504035542 34 101 3.0 7.0 0.01 0.37 0.08 89 997.4
20260504035043 34 96 2.0 7.0 0.01 0.37 0.08 89 997.4
20260504034552 34 101 2.0 6.0 0.00 0.37 0.07 89 997.5
20260504034043 34 0 1.0 6.0 0.00 0.37 0.07 89 997.5
20260504033543 34 0 0.0 6.0 0.00 0.37 0.07 89 997.6
20260504033056 34 101 1.0 6.0 0.01 0.37 0.07 89 997.6
20260504032543 34 109 1.0 4.0 0.01 0.37 0.07 89 997.7
20260504032042 34 125 0.0 3.0 0.01 0.37 0.07 89 997.7
20260504031550 34 0 1.0 3.0 0.01 0.37 0.07 89 997.7
20260504031041 34 125 0.0 3.0 0.01 0.37 0.07 89 997.9
20260504030544 34 0 0.0 4.0 0.01 0.37 0.07 89 998.0
20260504030049 34 125 1.0 4.0 0.01 0.37 0.07 88 998.1
20260504025543 34 125 1.0 4.0 0.00 0.37 0.07 88 998.1
20260504025044 34 0 0.0 3.0 0.00 0.37 0.07 88 998.0
20260504024548 34 0 0.0 4.0 0.00 0.37 0.07 88 998.2
20260504024042 34 104 2.0 4.0 0.00 0.37 0.07 88 998.1
20260504023542 34 101 1.0 4.0 0.01 0.37 0.07 88 998.1
20260504023048 34 101 2.0 4.0 0.00 0.36 0.06 88 998.3
20260504022542 34 0 1.0 6.0 0.00 0.36 0.06 88 998.3
20260504022045 34 105 2.0 7.0 0.00 0.36 0.06 88 998.4
20260504021547 34 101 3.0 8.0 0.00 0.36 0.06 88 998.6
20260504021046 34 105 3.0 8.0 0.01 0.36 0.06 88 998.5
20260504020542 34 94 2.0 8.0 0.01 0.36 0.06 88 998.5
20260504020052 34 93 2.0 4.0 0.02 0.36 0.06 87 998.5
20260504015542 34 74 0.0 6.0 0.02 0.36 0.06 87 998.4
20260504015044 34 96 0.0 7.0 0.02 0.36 0.06 87 998.5
20260504014551 34 97 2.0 7.0 0.02 0.36 0.06 87 998.5
20260504014042 35 103 2.0 6.0 0.02 0.36 0.06 87 998.7
20260504013541 35 93 0.0 3.0 0.02 0.35 0.05 86 998.7
20260504013051 35 34 0.0 3.0 0.02 0.35 0.05 86 998.8
20260504012547 35 104 0.0 4.0 0.02 0.35 0.05 87 998.8
20260504012042 35 104 1.0 4.0 0.02 0.35 0.05 87 998.9
20260504011550 35 92 2.0 4.0 0.01 0.34 0.04 87 998.9
20260504011042 35 100 1.0 7.0 0.01 0.34 0.04 86 998.9
20260504010542 35 0 2.0 8.0 0.01 0.34 0.04 86 999.0
20260504010056 35 111 4.0 8.0 0.01 0.33 0.03 87 999.1
20260504005542 35 118 1.0 4.0 0.01 0.33 0.03 86 999.1
20260504005042 35 107 2.0 4.0 0.01 0.33 0.03 86 999.2
20260504004550 35 111 1.0 3.0 0.01 0.33 0.03 85 999.2
20260504004042 35 0 0.0 3.0 0.01 0.33 0.03 85 999.1
20260504003545 35 0 1.0 4.0 0.00 0.33 0.03 85 999.1
20260504003046 35 120 1.0 4.0 0.00 0.33 0.03 85 999.3
20260504002542 35 120 1.0 4.0 0.01 0.33 0.03 85 999.4
20260504002042 35 121 0.0 3.0 0.01 0.33 0.03 84 999.4
20260504001608 35 0 0.0 3.0 0.01 0.33 0.03 85 999.5
20260504001042 36 0 0.0 6.0 0.02 0.33 0.03 85 999.5
20260504000543 36 123 1.0 7.0 0.02 0.33 0.03 85 999.5
20260504000052 36 174 3.0 7.0 0.01 0.32 0.02 84 999.5
20260503235542 36 94 1.0 6.0 0.01 0.32 0.02 84 999.6
20260503235041 36 0 1.0 6.0 0.01 0.32 0.02 84 999.7
20260503234552 36 90 1.0 6.0 0.01 0.32 0.02 83 999.6
20260503234044 36 175 0.0 2.0 0.02 0.32 0.02 83 999.7
20260503233542 36 0 0.0 2.0 0.02 0.32 0.02 83 999.7
20260503233049 36 0 0.0 4.0 0.02 0.32 0.02 83 999.6
20260503232546 36 0 0.0 4.0 0.01 0.31 0.01 83 999.5
20260503232042 36 275 2.0 7.0 0.01 0.31 0.01 83 999.7
20260503231547 36 192 1.0 8.0 0.01 0.31 0.01 83 999.7
20260503231045 36 229 4.0 8.0 0.00 0.30 0.00 82 999.8
20260503230542 36 250 2.0 8.0 0.00 0.30 0.00 82 999.8
20260503230048 36 280 3.0 10.0 0.00 0.30 0.00 82 999.7
20260503225541 37 232 5.0 10.0 0.00 0.30 0.00 81 999.8
20260503225042 37 232 4.0 11.0 0.00 0.30 0.00 81 999.8
20260503224553 37 268 5.0 13.0 0.00 0.30 0.00 80 999.9
20260503224043 38 275 7.0 13.0 0.00 0.29 0.00 80 1000.0
20260503223542 38 264 5.0 10.0 0.00 0.29 0.00 79 999.9
20260503223053 38 245 5.0 11.0 0.00 0.29 0.00 78 1000.0
20260503222545 38 268 5.0 11.0 0.00 0.29 0.00 76 1000.0
20260503222042 38 279 4.0 8.0 0.00 0.29 0.00 75 1000.1
20260503221553 38 241 4.0 14.0 0.00 0.29 0.00 73 999.9
20260503221046 38 273 5.0 14.0 0.00 0.29 0.00 71 1000.0
20260503220542 38 192 2.0 9.0 0.00 0.29 0.00 69 999.8
20260503220105 38 105 2.0 10.0 0.00 0.29 0.00 69 999.9
20260503215542 38 133 3.0 10.0 0.00 0.29 0.29 69 999.9
20260503215042 38 115 1.0 9.0 0.00 0.29 0.29 71 999.9
20260503214551 38 152 3.0 9.0 0.00 0.29 0.29 72 999.9
20260503214046 38 145 5.0 9.0 0.00 0.29 0.29 71 999.9
20260503213542 38 128 0.0 3.0 0.00 0.29 0.29 74 999.9
20260503213049 38 0 0.0 3.0 0.00 0.29 0.29 75 999.9
20260503212542 38 25 1.0 3.0 0.00 0.29 0.29 74 1000.0
20260503212042 38 117 0.0 3.0 0.00 0.29 0.29 73 1000.0
20260503211606 38 120 0.0 3.0 0.00 0.29 0.29 73 1000.1
20260503211047 38 0 0.0 0.0 0.00 0.29 0.29 71 999.9
20260503210542 38 0 0.0 0.0 0.00 0.29 0.29 71 1000.0
20260503210057 38 0 0.0 3.0 0.00 0.29 0.29 70 1000.1
20260503205542 39 0 0.0 3.0 0.00 0.29 0.29 70 1000.1
20260503205044 39 0 0.0 3.0 0.00 0.29 0.29 70 1000.1
20260503204553 39 0 0.0 4.0 0.00 0.29 0.29 69 1000.2
20260503204042 39 0 0.0 4.0 0.00 0.29 0.29 68 1000.2
20260503203542 39 102 1.0 7.0 0.00 0.29 0.29 68 1000.3
20260503203047 39 128 3.0 8.0 0.00 0.29 0.29 67 1000.3
20260503202543 39 139 3.0 8.0 0.00 0.29 0.29 67 1000.4
20260503202042 39 129 3.0 10.0 0.00 0.29 0.29 67 1000.4
20260503201547 39 128 3.0 10.0 0.00 0.29 0.29 68 1000.4
20260503201042 39 146 4.0 10.0 0.00 0.29 0.29 68 1000.5
20260503200546 39 115 3.0 10.0 0.00 0.29 0.29 68 1000.5
20260503200050 39 138 2.0 10.0 0.00 0.29 0.29 68 1000.6
20260503195542 39 116 3.0 8.0 0.00 0.29 0.29 67 1000.6
20260503195041 39 148 3.0 9.0 0.00 0.29 0.29 67 1000.7
20260503194555 39 146 2.0 9.0 0.00 0.29 0.29 68 1000.7
20260503194043 39 128 3.0 7.0 0.00 0.29 0.29 68 1000.7
20260503193543 38 104 2.0 7.0 0.00 0.29 0.29 67 1000.7
20260503193054 38 154 3.0 7.0 0.00 0.29 0.29 68 1000.7
20260503192541 38 163 3.0 7.0 0.00 0.29 0.29 68 1000.6
20260503192043 38 123 2.0 6.0 0.00 0.29 0.29 68 1000.7
20260503191548 38 113 2.0 7.0 0.00 0.29 0.29 68 1000.7
20260503191042 39 119 1.0 10.0 0.00 0.29 0.29 67 1000.7
20260503190544 39 159 4.0 10.0 0.00 0.29 0.29 67 1000.8
20260503190049 38 121 4.0 10.0 0.00 0.29 0.29 66 1000.7
20260503185543 38 111 2.0 9.0 0.00 0.29 0.29 67 1000.9
20260503185044 38 147 3.0 10.0 0.00 0.29 0.29 67 1001.0
20260503184547 38 105 4.0 10.0 0.00 0.29 0.29 66 1001.0
20260503184042 38 113 5.0 10.0 0.00 0.29 0.29 66 1001.1
20260503183542 38 128 3.0 9.0 0.00 0.29 0.29 66 1001.1
20260503183048 38 160 3.0 8.0 0.00 0.29 0.29 67 1001.3
20260503182543 38 130 3.0 9.0 0.00 0.29 0.29 66 1001.3
20260503182043 38 118 3.0 10.0 0.00 0.29 0.29 67 1001.3
20260503181618 38 120 4.0 10.0 0.00 0.29 0.29 68 1001.3
20260503181043 38 154 3.0 8.0 0.00 0.29 0.29 68 1001.5
20260503180542 38 137 3.0 12.0 0.00 0.29 0.29 68 1001.5
20260503180100 38 164 4.0 12.0 0.00 0.29 0.29 68 1001.5
20260503175541 38 121 2.0 11.0 0.00 0.29 0.29 69 1001.6
20260503175041 38 113 4.0 10.0 0.00 0.29 0.29 69 1001.7
20260503174555 38 106 3.0 7.0 0.00 0.29 0.29 71 1001.7
20260503174043 38 123 3.0 8.0 0.00 0.29 0.29 71 1001.8
20260503173542 38 101 4.0 8.0 0.00 0.29 0.29 72 1001.9
20260503173056 38 104 2.0 8.0 0.00 0.29 0.29 75 1001.9
20260503172542 38 102 3.0 8.0 0.00 0.29 0.29 75 1002.0
20260503172043 38 105 4.0 8.0 0.00 0.29 0.29 75 1002.1
20260503171543 38 99 3.0 8.0 0.00 0.29 0.29 75 1002.1
20260503171042 38 96 5.0 8.0 0.00 0.29 0.29 75 1002.2
20260503170542 38 108 4.0 9.0 0.00 0.29 0.29 75 1002.3
20260503150541 38 120 7.0 11.0 0.00 0.29 0.29 75 1004.3
20260503131041 35 263 8.0 26.0 0.02 0.29 0.29 86 1006.0
20260503130541 36 313 11.0 19.0 0.03 0.29 0.29 84 1006.2
20260503120106 35 258 6.0 15.0 0.07 0.25 0.25 87 1005.9
20260503110542 35 273 6.0 11.0 0.06 0.21 0.19 87 1005.8
20260503090110 34 149 1.0 8.0 0.02 0.21 0.11 85 1005.7
20260503081558 35 200 2.0 8.0 0.04 0.23 0.10 83 1005.8
20260503081043 35 202 3.0 12.0 0.03 0.22 0.09 83 1005.8
20260503080545 35 257 4.0 12.0 0.04 0.22 0.09 82 1005.8
20260503072543 35 251 7.0 16.0 0.03 0.19 0.06 80 1005.7
20260503072043 35 178 3.0 9.0 0.04 0.19 0.06 79 1005.8
20260503071559 35 277 2.0 11.0 0.03 0.18 0.05 80 1005.7
20260503071047 35 182 2.0 11.0 0.03 0.18 0.05 81 1005.7
20260503070543 35 252 4.0 11.0 0.03 0.18 0.04 81 1005.8
20260503060114 35 321 4.0 18.0 0.00 0.18 0.01 81 1005.9
20260503055040 35 247 4.0 10.0 0.00 0.18 0.01 80 1005.9
20260503054552 35 281 2.0 4.0 0.00 0.18 0.01 80 1005.6
20260503054042 35 259 1.0 9.0 0.00 0.18 0.01 81 1005.7
20260503053541 35 259 2.0 9.0 0.00 0.18 0.01 81 1005.7
20260503053048 34 265 2.0 8.0 0.00 0.18 0.01 81 1005.8
20260503052543 34 257 1.0 7.0 0.00 0.18 0.01 82 1005.9
20260503052043 34 241 3.0 7.0 0.00 0.17 0.00 81 1005.9
20260503051551 34 227 1.0 6.0 0.00 0.17 0.00 83 1005.9
20260503051041 34 273 0.0 9.0 0.00 0.17 0.00 83 1006.0
20260503050541 34 155 3.0 9.0 0.00 0.17 0.00 83 1006.0
20260503050049 34 294 1.0 12.0 0.00 0.17 0.00 83 1006.0
20260503045541 34 262 2.0 13.0 0.00 0.17 0.00 82 1006.0
20260503045040 34 352 4.0 13.0 0.00 0.17 0.00 81 1006.0
20260503044611 34 311 6.0 13.0 0.00 0.17 0.00 81 1006.0
20260503044040 34 207 6.0 12.0 0.00 0.17 0.00 77 1005.7
20260503043540 33 250 4.0 9.0 0.00 0.17 0.00 77 1005.7